User: anonymous   Login
Location: Newark
(49.5647°N, 8.2922°E)
Time: 00:38:52
(UTC+00:00)
Language:

Transit 2A - Orbit

View from above orbital plane
View from above orbital plane
View from above satellite
View from above satellite

Ground track
Ground track

The orbit data is extracted from the following two-line orbital elements,

1 00045U 60007A   21017.60930891 -.00000059  00000-0  12040-4 0  9995
2 00045  66.6933 176.5113 0253174 161.3339 199.7260 14.33702191 96534
Epoch (UTC): 17 January 2021 14:37:24
Eccentricity: 0.0253174
inclination: 66.6933°
perigee height: 598 km
apogee height: 960 km
right ascension of ascending node: 176.5113°
argument of perigee: 161.3339°
revolutions per day: 14.33702191
mean anomaly at epoch: 199.7260°
orbit number at epoch: 9653

The dashed part of the orbit path shows where the satellite is in the earth's shadow,  

DLR